Regional Weather Roundup
Issued by NWS Little Rock, AR

Home | Current Version | Previous Version | Text Only | Print | Product List | Glossary On
Versions: 1 2 3 4 5 6 7 8 9 10 11 12 13 14 15 16 17 18 19 20 21 22 23 24 25 26 27 28 29 30 31
000
ASUS44 KLZK 290505
RWRLZK

WEATHER ROUNDUP FOR ARKANSAS
NATIONAL WEATHER SERVICE LITTLE ROCK AR
1200 AM CDT THU JUN 29 2017

NOTE: "FAIR" INDICATES FEW OR NO CLOUDS BELOW 12,000 FEET WITH NO
SIGNIFICANT WEATHER AND/OR OBSTRUCTIONS TO VISIBILITY.

ARZ001-003-010-029-290600-
NORTHWEST ARKANSAS

CITY           SKY/WX    TMP DP  RH WIND       PRES   REMARKS
FAYETTEVILLE   CLEAR     73  66  78 S8        29.92
FORT SMITH     CLEAR     78  68  71 SE5       29.89S
HARRISON       CLEAR     70  66  87 S6        29.95F
BENTONVILLE    CLEAR     75  63  64 S6        29.93R
ROGERS         CLEAR     74  65  73 SE8       29.93R
SILOAM SPGS    CLEAR     73  64  73 S9        29.91S
HIGHFILL       CLEAR     73  66  78 S9        29.92R
$$

ARZ004-005-016-290600-
NORTH CENTRAL ARKANSAS

CITY           SKY/WX    TMP DP  RH WIND       PRES   REMARKS
BATESVILLE     CLEAR     73  66  78 CALM      29.96S
FLIPPIN        CLEAR     75  63  64 CALM      29.92S
MTN HOME       CLEAR     72  66  81 S5        29.94S
$$

ARZ040-041-290600-
WEST CENTRAL ARKANSAS

CITY           SKY/WX    TMP DP  RH WIND       PRES   REMARKS
MENA           CLEAR     79  73  83 SE5       29.95S
MOUNT IDA      CLEAR     77  66  68 VRB5      29.92S
$$

ARZ009-017-025-026-028-290600-
NORTHEAST ARKANSAS

CITY           SKY/WX    TMP DP  RH WIND       PRES   REMARKS
CORNING        FAIR      73  72  94 S7        29.95F
JONESBORO      CLEAR     75  68  78 S5        29.96R
WALNUT RIDGE   CLEAR     73  66  78 SE7       29.95
$$

ARZ022-023-033-042-044-290600-
CENTRAL ARKANSAS

CITY           SKY/WX    TMP DP  RH WIND       PRES   REMARKS
LITTLE ROCK    CLEAR     74  69  85 CALM      29.95R
JACKSONVILLE   CLEAR     76  69  79 CALM      29.94S
CONWAY           N/A     77  70  78 SE7       29.92S
SEARCY         CLEAR     71  70  96 CALM      29.97R
HOT SPRINGS    CLEAR     79  69  71 SE7       29.94S
RUSSELLVILLE   CLEAR     74  69  85 CALM      29.92S
CLINTON        FAIR      70  68  94 CALM      29.95S
$$

ARZ036-290600-
EAST ARKANSAS

CITY           SKY/WX    TMP DP  RH WIND       PRES   REMARKS
WEST MEMPHIS   CLEAR     75  68  78 S8        29.96R
$$

ARZ050-053-066-070-073-290600-
SOUTHWEST ARKANSAS

CITY           SKY/WX    TMP DP  RH WIND       PRES   REMARKS
ARKADELPHIA    FAIR      72  71  97 CALM      29.93S
CAMDEN         CLEAR     75  68  78 SE8       29.93S
TEXARKANA      CLEAR     76  70  82 SE7       29.92S
EL DORADO      CLEAR     75  71  87 SE5       29.94S
DE QUEEN       CLEAR     72  71  97 CALM      29.89F
$$

ARZ056-057-069-290600-
SOUTHEAST ARKANSAS

CITY           SKY/WX    TMP DP  RH WIND       PRES   REMARKS
PINE BLUFF     CLEAR     75  69  81 S7        29.94S
STUTTGART      CLEAR     75  59  57 S7        29.95S
MONTICELLO     CLEAR     76  70  82 S6        29.95S

$$






USA.gov is the U.S. government's official web portal to all federal, state and local government web resources and services.